Location: Unspecified
(0.0000°N, 0.0000°E)
Time: 22:26:50
(UTC+00:00)

Vanguard 2 - Pass Details

Date: 27 November 2019
Orbit: 552 x 2938 km, 32.9° (Epoch: 02 July)

Event Time Altitude Azimuth Distance (km) Brightness Sun altitude
Rises 23:45:49 0° 218° (SW) 5,384 12.1 -69.0°
Reaches altitude 10° 23:49:21 10° 211° (SSW) 4,686 11.7 -69.0°
Enters shadow 23:52:10 19° 202° (SSW) 4,215 11.3 -68.9°
Exits shadow 00:15:51 16° 86° (E) 5,251 11.7 -67.8°
Drops below altitude 10° 00:18:34 10° 81° (E) 5,750 11.9 -67.6°
Sets 00:23:24 0° 75° (ENE) 6,681 12.4 -67.2°
